Location: Bucquoy
(50.1391°N, 2.7097°E)
Time: 23:51:30
(UTC+00:00)

ATLAS 2AS CENTAUR R/B - Pass Details

Date: 06 May 2021
Orbit: 949 x 1263 km, 63.7° (Epoch: 07 May)

Event Time Altitude Azimuth Distance (km) Brightness Sun altitude
Rises 00:00:12 0° 316° (NW) 4,105 6.4 -23.2°
Reaches altitude 10° 00:03:06 10° 312° (NW) 3,097 5.6 -23.2°
Maximum altitude 00:10:09 51° 240° (WSW) 1,371 3.0 -23.1°
Enters shadow 00:11:46 43° 201° (SSW) 1,493 3.0 -23.1°
